Wind_Speed
60 59 61 60 59 60 59 56 57 58 56 54 51 55 53 58 60 62 64 67 69 73 73 76 80 86 82 85 84 88 93 96 95 96 100 98 100 105 117 114 115 120 120
67 67 66 61 61 60 63 64 64 62 60 59 59 61 62 63 65 67 69 67 75 77 80 79 81 87 86 87 87 91 96 97 97 101 103 101 99 110 121 114 116 120 119
71 68 66 65 63 64 65 68 68 71 60 64 63 65 66 67 72 75 67 68 79 82 86 87 87 90 92 87 90 96 97 100 101 104 100 100 102 111 118 116 118 118 118
65 67 67 65 65 68 70 70 71 59 59 65 67 68 70 73 74 77 62 75 86 86 89 91 91 95 90 88 91 96 99 100 101 104 103 103 104 111 121 117 118 119 121
72 71 72 72 71 70 72 71 73 69 68 70 72 68 58 78 72 72 70 85 86 91 91 93 91 96 91 93 95 98 102 104 103 104 102 104 109 113 121 117 118 118 123
75 75 74 74 74 73 73 73 75 75 73 71 73 73 72 75 80 75 80 85 91 95 95 96 96 99 95 98 95 102 105 104 105 101 101 103 110 114 116 119 117 116 119
79 75 77 78 75 74 74 78 79 74 73 73 76 79 79 68 77 84 87 90 94 97 97 99 102 105 100 96 101 104 105 107 108 103 103 108 112 115 114 116 117 118 121
82 84 79 77 79 78 78 80 81 79 79 78 83 81 79 76 85 91 91 98 98 101 96 102 104 108 98 102 106 109 109 111 102 107 108 113 113 115 115 115 115 118 120
85 81 81 84 86 87 85 85 85 83 82 85 83 82 88 86 89 91 97 101 103 104 103 103 109 102 101 105 108 109 116 114 109 111 110 114 116 117 114 115 120 119 119
84 86 88 87 90 92 91 89 88 84 86 83 93 92 91 96 97 99 98 101 104 103 100 107 105 104 106 109 109 113 113 114 113 112 117 115 117 120 118 116 118 122 115
91 90 91 93 94 95 93 94 91 90 90 95 91 89 94 97 103 105 105 106 101 102 107 110 108 106 109 110 110 113 113 114 118 116 119 117 118 117 115 118 121 120 114
101 98 97 99 100 101 100 94 96 99 96 94 100 99 102 106 108 108 110 107 106 109 110 107 110 110 112 110 113 115 118 122 116 118 117 117 119 116 120 121 119 118 113
103 103 103 104 105 103 100 100 100 101 103 105 109 110 108 109 110 111 108 107 112 111 113 114 111 111 114 113 117 118 122 120 115 118 119 119 119 121 122 121 121 117 111
104 104 103 103 103 104 102 102 103 103 106 107 104 104 109 113 113 112 113 113 113 113 113 110 111 111 116 123 117 127 120 116 118 120 121 124 123 123 118 118 120 113 103
107 107 108 110 111 111 111 110 110 111 109 106 109 112 118 117 120 119 121 120 113 115 114 116 121 126 124 124 127 121 120 117 120 118 121 124 127 121 122 118 116 108 101
114 115 116 116 116 118 119 120 120 119 118 117 119 119 118 123 124 120 118 117 119 116 122 124 123 124 122 120 120 117 116 121 117 118 120 125 127 120 118 113 109 103 99
123 122 121 120 120 120 121 123 121 120 122 124 125 124 122 117 119 121 123 121 123 120 120 123 126 123 119 119 118 118 119 118 122 126 127 127 119 120 115 105 105 99 92
125 124 126 129 128 125 126 127 128 126 124 125 128 126 126 123 123 123 122 121 122 122 126 127 126 119 119 117 120 122 121 126 128 127 125 119 118 115 106 105 102 93 93
119 119 121 121 122 123 123 124 124 122 122 124 124 126 129 127 130 134 133 134 131 127 125 121 123 118 119 120 122 123 126 128 128 116 118 116 110 107 106 103 98 95 90
119 120 120 122 123 125 129 130 129 129 129 130 129 129 131 131 130 124 126 124 122 120 118 119 119 120 120 122 122 125 125 126 118 117 112 107 106 102 102 99 98 95 90
101 100 100 101 101 102 104 106 106 105 104 105 107 108 111 114 114 115 115 116 119 119 119 121 123 126 126 126 129 127 116 112 102 103 105 103 99 99 99 100 97 95 84
74 75 75 77 79 79 81 83 84 84 85 88 88 89 91 93 95 97 98 102 105 106 110 114 120 128 127 116 109 103 99 99 101 103 96 95 98 98 98 99 93 83 72
70 69 70 71 71 70 69 71 76 80 82 84 85 86 89 92 92 93 92 92 92 91 94 95 96 97 98 97 97 99 98 96 94 92 93 96 98 96 98 89 80 70 67
60 59 59 62 62 61 62 62 65 69 73 75 77 80 83 87 88 90 92 91 91 92 94 93 93 95 96 94 92 89 88 87 87 90 92 96 96 91 88 81 71 70 72
56 55 53 53 55 55 54 55 58 62 66 69 73 75 79 82 85 86 88 90 91 93 92 94 95 94 90 89 88 87 87 88 88 90 93 95 90 85 81 70 69 76 79
50 51 50 47 44 43 44 44 46 50 54 59 63 68 74 78 81 83 86 87 87 88 89 88 85 85 84 83 84 86 88 89 89 90 89 83 80 75 69 72 76 81 83
Wind_Direction
236 240 244 250 257 263 267 272 276 283 284 285 290 295 299 301 304 306 306 308 312 312 319 311 315 320 318 318 324 324 320 324 329 330 330 329 331 331 332 330 329 331 331
237 246 249 255 257 261 266 272 278 283 282 284 287 292 298 302 304 306 303 306 310 310 312 315 314 319 317 318 320 321 318 325 327 328 327 328 330 330 331 328 327 329 331
248 252 256 259 260 263 266 275 281 283 279 283 289 294 297 300 304 307 297 300 308 310 311 313 313 317 317 316 314 317 317 320 325 324 325 326 327 327 330 327 326 327 330
246 249 252 254 256 262 269 274 277 271 268 279 284 293 296 300 304 306 289 297 303 308 310 309 310 316 316 314 311 314 316 319 322 321 325 324 325 324 327 327 327 328 328
247 253 252 257 263 268 272 273 272 273 278 278 285 293 298 295 300 297 287 293 296 305 310 307 311 313 312 310 313 315 316 320 320 322 322 324 323 322 325 324 327 326 328
253 253 255 260 265 268 269 269 271 275 280 280 285 289 289 294 295 290 290 290 297 303 310 308 307 310 309 310 312 311 316 318 318 320 320 320 323 320 324 323 324 324 325
248 254 261 265 266 267 268 270 273 275 278 275 280 287 289 284 289 286 287 293 298 301 305 303 303 307 306 309 309 311 314 315 317 318 317 318 319 320 319 321 322 324 326
251 258 262 264 264 263 267 271 271 273 277 275 280 282 287 282 278 281 287 292 296 298 302 301 300 305 306 307 307 310 311 314 315 316 316 315 316 317 318 321 320 322 325
255 257 260 261 262 265 268 269 271 272 272 272 282 280 279 277 280 286 289 289 293 295 298 296 302 305 305 304 305 307 312 313 314 314 314 312 313 316 318 318 320 322 324
252 258 260 261 261 262 265 267 268 269 272 271 274 276 279 276 279 284 289 290 289 292 293 300 301 302 303 302 304 308 309 310 310 310 312 311 314 314 316 317 319 320 324
253 258 260 260 263 266 270 273 274 276 277 276 274 273 275 279 282 288 290 289 291 293 296 300 299 299 299 301 303 305 307 307 307 307 309 311 311 312 313 314 317 320 322
254 257 258 261 262 264 270 270 271 272 270 267 270 274 277 283 286 286 286 288 291 292 297 296 298 297 297 300 302 304 304 305 305 307 309 308 310 312 312 313 317 319 320
256 259 262 264 265 266 267 267 266 265 265 268 272 276 281 284 284 283 286 286 290 292 294 295 294 295 298 299 301 301 300 303 303 305 305 308 309 310 311 313 315 318 318
257 259 261 261 260 261 264 264 264 267 271 275 277 276 279 283 281 283 284 288 289 291 290 289 292 296 296 297 296 298 299 299 301 303 304 306 308 311 311 313 315 316 316
253 254 254 254 256 259 262 265 267 271 272 272 274 276 279 279 279 282 285 287 287 285 285 288 292 293 293 294 296 295 295 298 301 301 303 305 310 309 309 311 313 315 317
253 255 256 259 261 263 265 267 269 272 273 272 274 276 276 278 281 281 282 282 282 283 286 287 289 289 290 290 292 292 294 299 298 302 303 305 306 308 309 311 311 315 319
255 257 259 260 262 264 265 267 267 268 270 272 273 275 276 276 277 279 280 281 282 284 285 284 285 286 286 290 289 291 293 296 298 303 303 306 304 307 308 308 312 316 318
262 262 263 263 263 264 265 267 268 268 267 270 272 272 274 273 274 276 277 276 279 280 281 283 285 283 285 285 287 291 294 295 298 300 300 303 303 307 306 309 313 316 318
266 267 267 266 268 272 273 271 270 271 270 271 272 270 272 272 273 274 274 276 277 278 281 281 281 282 282 284 285 289 291 294 297 297 300 301 304 305 306 311 314 315 318
268 269 270 270 270 268 269 270 269 270 270 271 272 271 270 270 271 272 272 273 274 275 276 277 277 279 282 282 285 289 292 292 294 294 298 300 303 304 307 311 312 315 314
273 273 273 273 272 272 272 271 270 269 269 268 267 266 267 268 268 268 268 269 269 271 273 274 276 278 281 283 284 290 289 292 294 295 299 302 301 304 307 309 311 314 309
274 274 275 274 272 272 271 272 271 270 269 269 268 267 266 267 268 268 269 270 272 273 274 276 276 276 280 282 284 288 290 293 294 297 298 299 301 304 306 307 310 307 305
278 278 277 277 277 276 274 272 270 268 266 266 265 264 264 266 268 271 272 272 274 276 277 277 278 280 282 284 286 288 290 291 292 294 296 297 300 303 304 305 305 304 306
282 283 283 284 283 283 281 275 271 267 266 265 264 263 262 263 265 267 269 271 273 273 274 276 278 280 282 284 287 290 290 291 290 291 294 297 300 303 304 305 304 305 308
290 290 289 291 291 291 287 279 272 268 265 263 263 262 262 263 264 265 267 269 271 272 275 277 278 281 283 286 286 288 290 290 290 292 294 298 300 302 302 302 305 306 307
298 298 297 296 298 297 293 286 279 275 270 267 265 264 263 264 265 266 267 268 270 272 274 277 280 282 284 285 287 289 288 290 292 294 296 297 297 298 301 305 305 305 308
Height
10665 10668 10674 10677 10682 10683 10685 10686 10683 10681 10680 10679 10677 10673 10668 10665 10660 10655 10650 10642 10637 10631 10625 10619 10608 10599 10588 10581 10571 10561 10552 10542 10529 10517 10505 10494 10482 10467 10454 10439 10423 10408 10390
10653 10658 10663 10666 10669 10672 10673 10672 10671 10669 10668 10667 10664 10661 10656 10653 10648 10641 10636 10629 10622 10616 10610 10605 10597 10586 10576 10567 10558 10548 10538 10527 10515 10505 10492 10481 10471 10456 10442 10426 10411 10396 10381
10643 10645 10649 10654 10656 10659 10659 10659 10657 10656 10653 10653 10651 10648 10644 10639 10634 10628 10621 10616 10610 10602 10595 10588 10581 10572 10564 10555 10545 10535 10523 10514 10504 10491 10478 10469 10458 10442 10428 10412 10399 10383 10369
10630 10633 10637 10641 10643 10644 10645 10647 10646 10643 10641 10638 10639 10636 10632 10625 10620 10610 10606 10601 10596 10590 10584 10577 10570 10561 10551 10541 10532 10521 10509 10501 10491 10478 10466 10456 10446 10432 10415 10399 10385 10369 10354
10617 10621 10624 10625 10628 10631 10633 10634 10633 10632 10630 10628 10625 10622 10617 10610 10607 10600 10593 10591 10584 10575 10569 10563 10554 10546 10538 10527 10517 10506 10495 10486 10477 10464 10451 10443 10432 10420 10404 10388 10371 10356 10340
10602 10607 10609 10611 10614 10617 10618 10618 10619 10618 10617 10616 10612 10608 10606 10597 10595 10589 10583 10576 10570 10559 10552 10548 10539 10532 10524 10513 10501 10490 10479 10471 10463 10449 10437 10429 10417 10406 10390 10375 10360 10345 10331
10588 10591 10594 10596 10598 10600 10601 10603 10603 10602 10601 10600 10598 10593 10590 10584 10579 10574 10567 10562 10555 10549 10543 10535 10526 10517 10508 10497 10486 10475 10464 10457 10448 10435 10424 10414 10402 10389 10377 10362 10346 10331 10316
10572 10575 10577 10579 10581 10583 10584 10585 10585 10585 10585 10583 10580 10577 10574 10570 10564 10557 10551 10545 10539 10534 10528 10520 10509 10501 10490 10481 10468 10457 10448 10439 10431 10419 10411 10398 10385 10371 10359 10346 10333 10320 10302
10554 10558 10560 10561 10562 10564 10565 10567 10568 10567 10567 10564 10562 10561 10556 10550 10544 10540 10538 10530 10523 10517 10511 10502 10492 10480 10473 10463 10452 10440 10429 10421 10414 10403 10393 10381 10368 10356 10342 10328 10315 10302 10287
10536 10537 10539 10542 10544 10545 10547 10547 10548 10548 10547 10548 10544 10541 10535 10531 10528 10523 10520 10513 10507 10499 10493 10481 10470 10462 10453 10442 10432 10422 10411 10402 10395 10386 10376 10365 10350 10336 10324 10308 10298 10286 10272
10519 10520 10522 10523 10524 10524 10525 10526 10527 10527 10527 10527 10525 10522 10515 10510 10509 10502 10496 10490 10482 10476 10470 10459 10450 10441 10432 10421 10411 10401 10392 10382 10374 10365 10356 10346 10334 10320 10308 10294 10279 10265 10252
10498 10500 10501 10503 10504 10505 10506 10506 10507 10507 10507 10506 10503 10500 10496 10490 10484 10480 10474 10468 10461 10455 10447 10435 10430 10420 10410 10400 10390 10380 10372 10362 10352 10342 10333 10324 10315 10302 10291 10276 10263 10249 10235
10477 10478 10479 10480 10481 10482 10485 10485 10485 10485 10484 10482 10480 10477 10471 10470 10466 10461 10454 10446 10438 10430 10423 10413 10408 10399 10389 10378 10368 10359 10351 10344 10331 10322 10312 10304 10293 10280 10267 10254 10241 10229 10216
10455 10457 10458 10458 10460 10461 10462 10462 10462 10461 10460 10458 10455 10453 10448 10446 10441 10435 10429 10422 10415 10408 10398 10390 10384 10375 10366 10356 10347 10337 10330 10320 10309 10302 10293 10283 10271 10259 10247 10235 10222 10208 10195
10430 10432 10434 10436 10436 10436 10436 10437 10435 10433 10435 10434 10431 10427 10425 10421 10414 10410 10405 10400 10393 10384 10376 10371 10363 10352 10341 10332 10324 10315 10308 10299 10292 10281 10272 10260 10251 10237 10228 10215 10202 10190 10175
10401 10403 10405 10406 10407 10408 10410 10412 10412 10410 10409 10408 10407 10403 10398 10393 10386 10381 10376 10369 10365 10357 10352 10343 10337 10327 10318 10309 10301 10293 10286 10280 10270 10263 10252 10241 10230 10219 10207 10195 10182 10169 10155
10373 10374 10377 10381 10382 10381 10383 10385 10384 10383 10382 10375 10375 10370 10366 10361 10355 10353 10350 10341 10337 10331 10326 10317 10309 10300 10292 10286 10279 10271 10267 10256 10249 10243 10230 10221 10207 10199 10188 10173 10163 10150 10134
10349 10351 10353 10353 10351 10351 10351 10351 10351 10350 10350 10350 10344 10339 10335 10331 10325 10320 10315 10312 10308 10305 10298 10288 10282 10275 10270 10262 10256 10249 10242 10233 10228 10218 10207 10197 10187 10180 10164 10154 10143 10129 10118
10312 10312 10313 10312 10313 10314 10313 10313 10313 10312 10312 10314 10308 10302 10301 10297 10295 10290 10287 10287 10283 10275 10269 10263 10254 10250 10245 10240 10232 10229 10221 10213 10204 10191 10185 10174 10166 10155 10142 10132 10119 10108 10098
10278 10277 10275 10275 10275 10277 10275 10273 10272 10273 10272 10273 10274 10267 10260 10260 10259 10259 10256 10252 10248 10245 10241 10234 10230 10226 10222 10218 10212 10206 10198 10190 10181 10170 10163 10154 10144 10131 10120 10110 10098 10087 10077
10245 10242 10240 10239 10238 10238 10236 10232 10231 10231 10231 10232 10231 10229 10227 10225 10227 10227 10225 10222 10217 10214 10213 10208 10205 10203 10202 10196 10187 10183 10174 10167 10156 10146 10140 10132 10120 10110 10100 10090 10078 10069 10058
10218 10215 10212 10209 10206 10205 10202 10200 10198 10198 10197 10196 10198 10197 10196 10195 10194 10195 10195 10191 10190 10190 10187 10184 10181 10179 10177 10170 10164 10157 10150 10142 10134 10125 10118 10109 10098 10089 10079 10069 10059 10049 10040
10197 10193 10188 10183 10180 10178 10176 10173 10169 10169 10170 10170 10170 10171 10170 10170 10170 10169 10169 10170 10169 10168 10164 10160 10156 10152 10149 10144 10139 10134 10129 10121 10112 10104 10095 10086 10077 10068 10059 10048 10039 10029 10021
10175 10171 10167 10161 10157 10154 10149 10145 10143 10141 10140 10141 10143 10144 10146 10146 10146 10146 10145 10144 10144 10142 10139 10136 10133 10129 10125 10121 10116 10111 10105 10097 10090 10082 10073 10065 10056 10046 10037 10026 10019 10011 10002
10157 10152 10147 10142 10136 10131 10126 10121 10118 10116 10115 10116 10116 10118 10119 10120 10120 10121 10120 10119 10118 10116 10114 10111 10108 10105 10102 10098 10092 10087 10080 10074 10067 10060 10052 10044 10034 10026 10016 10007 9999 9991 9983
10141 10136 10131 10126 10120 10114 10109 10103 10099 10097 10095 10094 10094 10095 10096 10096 10096 10097 10096 10095 10095 10093 10091 10088 10085 10082 10079 10074 10069 10064 10057 10051 10045 10039 10031 10022 10013 10005 9997 9989 9981 9973 9963